Temperature
13 13 13 12 12 12 12 12 12 12 12 12 11 12 12 12 12 12 12 12 12 12 12 12 12 12 12 13 13 13 13 13 13 14 14 14 14 14 14 14 14 14 14
13 12 12 12 12 11 11 12 12 12 12 11 11 11 11 11 11 11 12 12 12 12 12 12 12 12 12 12 13 12 13 12 13 13 14 13 14 13 13 14 14 14 14
13 12 12 11 11 11 12 12 12 12 12 11 10 11 11 11 11 11 11 11 11 11 11 11 12 12 12 12 12 12 12 13 13 12 12 12 12 13 13 13 13 14 14
12 11 12 12 12 11 12 12 12 12 12 11 11 11 11 11 11 11 11 11 11 11 11 11 11 11 11 11 12 12 12 13 12 12 12 12 12 12 12 13 13 13 13
12 12 12 12 12 11 12 12 12 11 11 11 11 11 11 11 11 11 11 11 10 11 11 11 11 11 12 12 12 11 12 13 13 13 13 13 12 12 12 12 12 13 13
12 12 12 12 12 12 12 12 11 11 11 11 11 11 11 11 12 12 11 11 11 11 11 11 11 11 11 12 12 12 12 12 12 12 13 13 12 12 12 12 11 12 12
12 12 12 12 12 12 12 12 11 12 11 11 11 11 12 12 12 12 12 11 11 11 11 11 11 11 11 11 11 11 11 12 11 11 11 11 12 11 11 12 11 11 11
12 12 12 12 12 11 12 12 12 11 11 11 11 11 12 11 11 12 12 11 11 10 10 10 10 11 11 11 11 11 11 11 11 11 11 12 12 12 12 12 12 12 12
12 12 12 12 12 12 12 12 12 12 11 11 11 12 12 11 11 11 11 11 10 10 11 10 10 10 10 11 10 10 11 11 11 11 11 11 11 12 12 12 13 14 13
12 12 12 12 12 12 12 12 11 12 12 11 11 11 11 11 11 11 11 11 10 10 10 10 10 10 10 10 10 9 10 10 10 11 11 11 11 11 11 11 12 12 12
12 11 11 11 11 11 11 11 11 11 10 10 10 11 10 11 11 11 11 11 11 11 11 10 10 10 9 9 9 9 10 10 10 11 11 11 11 11 11 10 11 11 11
12 11 11 11 11 11 10 10 10 10 10 10 10 10 10 11 10 10 10 10 10 10 10 10 9 9 9 8 8 9 9 10 10 11 11 11 11 10 10 10 10 10 10
11 11 10 11 11 11 10 10 10 10 10 10 10 10 9 10 10 10 10 10 10 9 9 8 8 8 8 8 8 8 8 9 9 10 10 10 10 9 9 10 10 10 10
11 10 10 10 10 10 11 10 10 10 10 10 10 9 9 9 9 9 9 9 9 8 8 8 8 8 8 8 8 8 8 7 8 8 9 9 9 9 9 9 9 10 10
10 10 10 11 10 10 11 10 10 11 11 10 10 10 9 9 9 9 9 9 9 8 8 8 9 9 9 9 8 8 7 7 7 7 8 8 8 8 8 8 8 9 9
11 11 11 11 11 10 10 10 10 10 10 10 9 9 9 9 9 9 9 8 8 9 9 9 9 9 9 9 8 8 8 7 7 7 7 7 7 7 7 8 8 8 8
11 11 11 11 11 11 10 10 9 9 9 9 9 9 9 9 9 9 8 8 8 8 9 9 9 9 9 8 8 8 7 7 6 7 6 6 6 7 7 7 7 7 7
10 11 11 10 11 11 10 10 10 9 9 9 8 8 8 9 9 9 8 8 8 9 9 9 9 9 8 8 8 8 7 7 7 6 6 6 6 6 6 6 7 6 6
10 10 10 11 11 11 10 10 10 9 9 9 8 8 8 8 8 8 8 9 10 10 10 9 9 9 8 8 8 7 7 6 6 6 6 6 5 6 6 6 6 6 6
11 10 10 10 11 10 10 10 9 9 8 8 8 8 8 8 8 8 8 9 10 10 9 9 9 9 8 8 8 7 7 7 6 6 6 6 5 5 5 5 6 6 6
11 10 9 10 10 10 11 9 8 8 8 9 9 9 9 9 9 10 9 9 9 10 9 9 9 9 8 8 8 8 8 7 7 6 6 6 5 5 5 5 5 5 5
11 11 9 10 11 10 10 10 10 9 10 10 10 10 9 9 10 10 10 10 9 9 9 9 9 9 9 9 8 8 8 7 7 7 6 5 5 5 5 5 5 5 5
11 11 10 10 11 10 10 10 10 11 11 11 11 10 9 9 10 10 10 10 10 10 10 9 9 9 9 9 8 8 8 7 7 6 6 5 5 5 4 4 4 4 4
11 11 10 10 10 10 10 10 10 10 11 11 11 11 10 10 10 10 10 10 10 10 10 10 9 9 9 9 8 8 7 7 6 6 5 5 5 4 4 4 4 4 4
12 11 11 11 11 11 10 10 11 11 11 11 11 11 11 11 10 10 10 10 10 10 10 10 9 9 9 8 8 8 7 7 6 5 5 4 4 4 4 4 4 3 3
12 12 12 11 11 11 11 11 11 11 11 11 11 11 11 11 11 11 11 11 10 10 10 10 10 9 9 8 8 8 7 6 6 5 5 4 4 3 4 4 3 3 3
Wind_Speed
16 15 8 4 4 2 3 5 6 5 5 5 5 4 4 5 5 4 4 3 2 1 2 2 2 2 3 3 4 3 4 4 7 6 5 5 5 5 6 6 4 4 4
12 13 8 7 5 4 7 6 7 7 5 5 5 4 4 5 6 5 5 5 4 3 3 2 3 3 2 3 4 5 5 5 6 8 7 7 7 8 8 8 4 4 3
6 8 8 7 1 4 6 8 6 7 6 5 6 6 5 5 5 6 6 6 6 5 5 5 4 3 5 6 6 6 6 4 4 4 5 6 7 9 11 8 6 5 3
3 7 9 8 7 6 4 6 7 8 9 8 9 9 8 7 7 8 7 7 7 6 6 6 5 5 7 7 5 6 7 6 7 6 7 7 7 8 10 10 10 7 4
4 11 11 10 9 9 9 9 9 9 9 9 10 10 9 8 8 8 8 8 8 9 8 8 7 6 6 6 6 8 9 9 8 5 8 9 10 10 10 6 8 9 7
5 10 10 11 11 11 9 9 11 10 8 10 11 11 10 8 8 9 7 9 9 9 9 8 8 6 8 8 8 7 8 8 10 10 11 10 11 10 10 8 8 6 5
5 9 8 9 12 10 8 10 11 10 8 9 10 10 10 8 7 8 6 9 10 9 9 8 10 11 9 8 4 4 5 4 4 6 9 10 10 11 11 10 9 6 5
7 8 7 10 15 11 7 7 8 8 7 6 8 9 10 7 4 7 6 9 9 9 8 8 8 10 10 9 7 8 7 8 7 7 7 8 8 10 11 8 4 3 3
4 5 5 10 14 14 13 9 7 6 5 5 6 8 10 8 3 3 4 9 8 7 7 7 7 9 13 15 9 7 7 8 2 2 3 6 8 7 9 11 10 9 7
6 5 5 7 11 14 15 13 10 8 6 4 7 8 9 8 3 5 6 6 7 6 6 7 9 9 12 14 10 9 9 9 9 7 4 5 6 5 8 11 10 9 8
8 7 7 7 9 11 13 12 11 9 8 7 7 7 8 7 4 3 7 2 5 5 5 5 7 9 11 11 10 8 8 9 7 7 6 7 8 8 9 9 9 9 8
9 10 8 7 8 10 11 11 12 11 11 9 9 9 8 7 5 4 5 6 3 3 3 5 6 6 6 8 8 9 13 10 8 8 8 8 8 9 9 9 7 6 6
12 11 9 9 8 9 10 10 11 12 12 12 10 7 6 7 7 7 7 6 5 2 5 6 3 3 5 5 4 8 9 9 9 8 8 8 8 8 9 9 8 7 1
13 12 11 9 9 8 8 9 9 12 13 13 12 10 7 8 8 8 7 5 4 5 7 5 2 2 3 3 2 4 8 8 8 8 8 8 8 8 8 10 10 10 9
13 12 12 11 10 8 6 5 7 5 7 11 11 10 8 8 7 8 5 3 3 2 3 7 6 3 3 3 5 6 7 8 7 8 8 8 8 8 9 8 8 8 8
13 13 12 12 11 10 8 5 8 6 10 10 4 4 8 10 15 12 9 7 4 1 4 5 4 2 2 3 4 5 7 7 8 8 8 9 9 9 8 8 8 9 9
15 14 13 12 11 11 10 10 9 6 8 7 6 7 11 14 14 10 8 6 3 5 5 5 3 2 2 2 3 5 6 6 6 7 8 8 8 8 7 8 8 9 9
15 11 12 13 12 11 11 11 11 13 13 8 5 6 13 15 12 10 9 7 6 6 5 5 4 3 2 1 2 3 4 5 6 7 7 7 7 7 7 7 7 8 9
15 14 14 13 13 12 12 12 12 12 13 13 11 8 10 10 8 7 7 8 8 7 6 5 4 4 3 2 1 1 2 3 3 5 6 7 7 7 6 7 6 4 6
16 14 14 14 14 14 13 12 12 13 14 12 12 13 13 10 8 9 10 9 7 6 6 5 5 4 4 3 2 3 2 2 2 5 5 6 6 6 6 7 7 7 7
17 16 15 15 15 16 14 14 14 13 13 14 15 15 17 14 12 13 12 10 8 7 7 6 6 6 6 6 5 5 4 3 2 3 4 5 5 5 6 6 6 7 6
17 17 17 17 16 16 15 15 16 17 18 16 15 14 18 14 11 11 11 11 10 9 8 7 6 6 6 6 7 6 5 5 3 2 3 3 4 5 6 6 6 6 7
19 19 19 17 16 16 15 15 16 16 16 17 16 15 15 14 12 11 12 13 12 11 10 9 8 8 7 5 6 7 7 5 3 2 4 4 4 4 5 5 5 6 7
21 21 21 19 18 18 17 17 17 17 18 18 17 16 16 16 15 15 14 14 14 14 12 10 10 11 10 7 8 9 8 5 4 3 3 4 4 1 4 5 5 6 7
21 22 21 21 20 20 20 19 19 19 18 17 16 15 14 14 15 15 14 15 15 14 14 12 11 12 13 13 12 10 10 11 6 4 4 3 3 4 5 5 5 6 7
22 22 21 20 20 21 20 20 20 20 19 19 17 17 16 15 16 15 15 15 14 14 14 13 14 16 16 15 15 14 19 17 14 9 6 4 4 4 5 4 5 7 8
Wind_Direction
20 23 33 94 112 106 219 162 134 152 162 155 136 141 155 153 155 171 178 169 165 102 62 44 33 334 5 336 321 314 283 287 286 292 311 324 326 322 304 285 223 241 229
47 28 48 58 59 195 190 178 165 168 174 167 160 163 163 146 137 150 152 125 109 88 65 59 42 36 18 12 355 356 346 329 312 307 334 344 341 333 319 296 276 250 226
73 79 76 87 66 253 172 174 159 150 148 143 143 135 128 121 124 110 96 85 77 75 75 71 56 42 31 23 17 5 10 7 23 345 350 357 352 1 339 323 295 270 213
108 150 146 162 190 216 153 129 132 139 131 130 127 124 120 117 105 98 92 83 82 89 94 93 76 45 26 2 22 27 28 39 54 37 32 20 9 15 9 354 331 314 271
170 171 181 181 187 150 139 144 145 140 134 135 131 126 118 109 96 94 92 89 92 93 88 79 68 63 46 9 20 29 22 27 37 28 41 33 20 13 14 350 327 318 287
173 171 184 170 145 123 128 139 140 136 136 137 131 119 105 94 75 79 89 93 90 92 94 92 86 77 79 66 50 45 36 28 30 25 32 28 23 10 10 13 0 347 355
131 140 167 155 119 111 122 130 131 121 127 136 131 121 114 116 109 96 83 92 90 86 81 71 66 52 37 68 110 120 76 56 355 353 23 14 6 0 351 3 29 21 7
134 121 134 138 114 112 98 105 115 114 118 132 135 130 122 115 103 107 112 105 99 92 84 74 62 50 20 0 39 43 35 39 29 15 11 353 352 345 332 318 311 132 115
141 126 147 152 144 147 151 154 145 133 127 137 140 136 131 140 169 218 215 132 120 108 86 59 52 50 8 351 8 13 14 6 31 202 244 270 274 278 342 359 355 352 45
192 177 174 155 155 160 162 163 163 161 150 166 151 136 136 147 184 280 271 151 146 145 126 100 66 42 17 6 10 10 7 355 340 330 309 294 333 9 27 13 10 10 14
201 180 177 163 148 148 157 163 164 167 159 163 135 131 130 129 142 306 308 248 153 159 138 120 82 46 27 13 11 16 343 318 324 332 346 3 7 10 21 25 12 5 14
195 187 181 171 163 159 164 163 163 168 168 164 151 143 127 114 101 88 52 51 46 131 126 102 87 64 48 35 23 351 323 326 1 2 2 7 11 12 9 11 24 29 46
196 190 183 175 166 163 168 168 166 174 175 170 156 138 138 134 115 94 88 74 41 54 85 80 97 190 188 112 48 339 353 9 5 2 2 4 8 13 358 360 6 0 96
200 192 185 181 170 171 177 182 185 179 177 172 159 161 167 161 152 154 154 156 166 156 148 143 130 106 127 137 150 27 36 23 4 3 357 353 356 0 4 360 355 357 355
199 191 192 188 179 182 187 160 194 191 175 168 163 164 165 174 133 89 96 154 157 115 181 168 179 168 120 79 55 43 34 19 14 14 8 358 355 356 355 350 348 346 353
203 201 202 205 189 191 179 146 61 65 96 113 165 168 132 117 112 103 93 85 83 266 219 176 156 127 64 46 30 31 38 29 17 16 13 5 357 360 350 355 1 355 348
210 207 198 210 199 193 190 187 165 111 82 108 143 117 120 129 129 135 145 154 194 239 207 167 159 142 98 55 30 31 36 34 15 13 12 6 358 355 351 353 359 359 351
203 206 203 200 205 193 195 193 182 167 163 153 140 119 127 136 146 163 174 183 186 213 192 165 168 167 160 45 8 27 29 26 19 10 13 9 2 356 359 356 9 7 350
199 198 204 202 204 194 188 189 183 173 165 158 157 147 132 129 142 168 194 220 189 176 172 170 179 180 177 206 239 4 20 26 357 357 10 9 2 356 2 358 4 5 335
199 193 197 204 198 196 190 180 176 164 162 165 180 177 166 167 180 183 193 204 195 178 174 183 185 194 202 223 232 245 239 212 308 348 6 5 359 354 357 353 352 349 356
195 184 192 204 197 193 189 170 172 177 179 188 190 177 170 190 196 189 186 188 196 190 185 195 192 200 212 216 231 233 237 259 267 319 351 358 351 344 343 338 335 337 351
191 183 189 200 192 189 191 185 182 188 194 192 186 166 164 200 210 200 198 197 200 206 203 207 221 219 226 227 225 229 243 247 249 277 318 330 325 326 330 332 334 332 332
188 184 183 195 190 186 187 191 197 197 191 191 190 180 186 208 221 221 216 213 213 214 215 219 231 239 235 234 231 228 238 243 248 292 312 317 316 347 331 328 337 339 343
187 188 185 191 192 187 190 194 192 192 194 196 199 201 198 204 217 225 225 224 220 220 220 218 226 239 242 237 228 221 224 211 211 213 232 291 305 264 299 319 333 340 330
189 191 192 192 193 192 193 197 197 193 199 205 206 211 218 217 216 220 219 220 220 221 223 225 228 232 233 232 229 207 150 146 177 199 208 242 295 306 294 307 328 325 323
192 194 195 196 198 198 199 199 204 202 203 208 214 217 217 216 218 219 218 217 220 223 227 229 230 233 231 222 215 178 153 160 171 183 224 234 227 249 281 303 313 310 310
Height
1463 1459 1457 1460 1461 1463 1468 1473 1473 1476 1479 1481 1480 1481 1483 1481 1481 1482 1485 1486 1487 1486 1486 1487 1486 1485 1486 1484 1484 1481 1478 1476 1473 1472 1470 1466 1465 1463 1462 1461 1458 1456 1455
1464 1461 1462 1466 1467 1471 1473 1476 1475 1476 1478 1480 1481 1482 1484 1483 1482 1483 1486 1486 1485 1485 1486 1487 1486 1486 1486 1484 1482 1478 1475 1473 1472 1471 1469 1466 1464 1462 1461 1461 1458 1454 1451
1462 1463 1469 1471 1472 1475 1475 1475 1475 1475 1476 1479 1480 1481 1484 1485 1484 1484 1485 1485 1484 1484 1486 1488 1487 1487 1486 1483 1481 1479 1475 1473 1472 1470 1467 1464 1463 1460 1458 1458 1456 1453 1450
1464 1465 1465 1469 1471 1472 1474 1475 1476 1476 1476 1478 1480 1481 1482 1483 1485 1486 1486 1486 1486 1486 1486 1488 1489 1488 1486 1484 1482 1479 1476 1475 1473 1471 1467 1466 1464 1462 1457 1453 1452 1451 1450
1465 1465 1465 1465 1468 1473 1478 1479 1477 1475 1476 1479 1481 1482 1483 1484 1486 1486 1487 1488 1489 1488 1488 1489 1489 1487 1485 1484 1482 1479 1478 1477 1474 1473 1470 1470 1468 1467 1460 1453 1450 1447 1446
1466 1466 1466 1465 1468 1474 1477 1478 1478 1477 1478 1480 1482 1484 1484 1485 1487 1488 1490 1491 1491 1492 1492 1492 1490 1488 1484 1484 1484 1482 1480 1478 1477 1476 1474 1472 1471 1469 1464 1457 1451 1447 1445
1465 1466 1466 1465 1468 1473 1476 1477 1477 1477 1480 1482 1483 1485 1485 1487 1489 1490 1492 1493 1493 1494 1495 1494 1492 1489 1488 1490 1488 1484 1482 1478 1478 1478 1478 1475 1472 1468 1464 1458 1454 1451 1448
1466 1465 1466 1467 1468 1471 1473 1475 1477 1478 1480 1484 1486 1487 1487 1488 1490 1492 1494 1494 1494 1496 1496 1494 1494 1492 1491 1491 1489 1487 1486 1482 1480 1479 1479 1478 1474 1468 1463 1459 1455 1453 1452
1464 1464 1466 1466 1466 1468 1471 1474 1477 1479 1481 1485 1487 1487 1487 1489 1491 1493 1495 1496 1496 1497 1496 1495 1495 1493 1491 1491 1491 1488 1485 1483 1481 1480 1480 1478 1474 1470 1464 1461 1458 1455 1453
1462 1464 1466 1466 1466 1467 1470 1473 1477 1480 1481 1484 1487 1486 1487 1490 1492 1492 1494 1496 1496 1496 1496 1495 1494 1493 1492 1491 1489 1487 1485 1482 1481 1480 1480 1478 1475 1471 1466 1463 1461 1459 1456
1459 1461 1462 1463 1465 1466 1470 1472 1475 1477 1478 1482 1485 1486 1488 1490 1492 1492 1493 1495 1495 1496 1497 1497 1495 1494 1492 1490 1488 1486 1484 1483 1482 1481 1479 1477 1474 1471 1468 1465 1462 1461 1459
1455 1457 1459 1460 1463 1465 1468 1470 1472 1474 1477 1481 1484 1486 1487 1489 1490 1490 1491 1493 1494 1496 1497 1497 1496 1495 1493 1492 1490 1488 1486 1485 1483 1481 1479 1477 1474 1472 1470 1467 1463 1461 1459
1452 1454 1456 1458 1460 1463 1465 1468 1470 1472 1475 1479 1481 1483 1485 1487 1488 1489 1490 1492 1493 1495 1496 1495 1495 1494 1493 1492 1490 1488 1487 1485 1483 1481 1479 1477 1475 1473 1470 1468 1466 1463 1461
1449 1451 1454 1456 1458 1460 1463 1465 1468 1470 1473 1476 1479 1481 1483 1486 1487 1488 1490 1491 1492 1494 1494 1494 1494 1494 1493 1492 1491 1490 1488 1486 1484 1482 1479 1477 1475 1473 1471 1469 1466 1464 1462
1445 1448 1451 1454 1455 1458 1460 1463 1465 1468 1470 1473 1476 1478 1481 1484 1486 1487 1489 1491 1493 1492 1493 1494 1495 1495 1494 1493 1492 1490 1489 1487 1485 1482 1480 1478 1475 1473 1471 1469 1467 1466 1464
1442 1445 1448 1451 1453 1455 1457 1459 1461 1464 1467 1470 1473 1477 1480 1482 1483 1485 1487 1488 1489 1490 1492 1493 1494 1494 1493 1493 1492 1491 1489 1487 1485 1483 1481 1479 1477 1475 1472 1470 1468 1467 1465
1437 1440 1443 1446 1449 1451 1454 1456 1458 1461 1464 1468 1471 1474 1476 1478 1481 1483 1484 1486 1487 1489 1491 1492 1492 1492 1492 1492 1491 1490 1489 1488 1486 1484 1482 1480 1478 1475 1474 1472 1470 1468 1466
1431 1434 1438 1442 1444 1447 1450 1453 1456 1457 1460 1464 1468 1471 1473 1475 1478 1480 1483 1485 1487 1488 1489 1490 1491 1491 1491 1491 1490 1490 1489 1488 1486 1485 1483 1480 1478 1476 1474 1473 1471 1469 1467
1426 1429 1433 1437 1440 1443 1446 1449 1452 1455 1458 1461 1465 1468 1471 1474 1476 1479 1481 1483 1485 1486 1487 1488 1489 1489 1490 1490 1489 1489 1488 1488 1486 1485 1483 1481 1479 1477 1475 1474 1472 1470 1468
1420 1424 1427 1431 1435 1439 1442 1445 1448 1452 1455 1458 1463 1466 1469 1472 1474 1477 1478 1480 1482 1484 1485 1485 1486 1487 1488 1488 1487 1487 1487 1486 1485 1484 1482 1480 1479 1477 1475 1474 1472 1471 1469
1413 1417 1421 1426 1430 1433 1437 1441 1445 1449 1453 1457 1461 1464 1467 1469 1472 1475 1476 1478 1479 1481 1482 1483 1484 1484 1485 1485 1485 1485 1485 1484 1483 1483 1481 1480 1478 1477 1475 1474 1472 1471 1469
1405 1410 1414 1420 1424 1429 1433 1437 1441 1445 1449 1454 1458 1461 1464 1467 1469 1471 1473 1475 1476 1478 1479 1480 1481 1481 1481 1481 1482 1482 1482 1481 1481 1480 1479 1478 1477 1476 1474 1473 1471 1470 1468
1398 1404 1409 1414 1419 1424 1428 1432 1436 1440 1445 1449 1453 1456 1460 1463 1465 1467 1469 1471 1472 1474 1475 1476 1477 1478 1478 1477 1478 1478 1479 1478 1478 1478 1478 1477 1475 1474 1473 1472 1471 1469 1468
1391 1397 1402 1408 1413 1418 1423 1427 1431 1435 1440 1444 1447 1451 1453 1456 1459 1461 1463 1465 1467 1468 1470 1471 1472 1473 1474 1474 1474 1474 1474 1475 1475 1475 1474 1474 1473 1472 1471 1471 1470 1469 1467
1384 1390 1395 1401 1406 1412 1417 1422 1426 1430 1434 1437 1441 1445 1448 1450 1453 1455 1457 1459 1461 1463 1464 1465 1467 1468 1468 1469 1469 1470 1469 1470 1471 1472 1472 1471 1471 1470 1469 1469 1468 1467 1465
1378 1384 1390 1395 1400 1405 1410 1415 1419 1423 1427 1431 1434 1438 1441 1444 1446 1448 1451 1453 1455 1457 1458 1459 1460 1461 1462 1463 1463 1464 1464 1465 1466 1467 1468 1468 1468 1467 1467 1466 1465 1464 1463